Home   Weather   Marl   Past weeks

Flag for Germany Past Weather in Marl, North Rhine-Westphalia, Germany — Yesterday and Last 2 Weeks

Now
39 °F

Sunny.


Feels Like: 39 °F
Forecast: 28 / 40 °F
Wind: 2 mph from Northeast

Location: Dortmund / Wickede

Current Time: Dec 6, 2016 at 3:18:11 pm

Latest Report: Dec 6, 2016 at 2:50 pm


Visibility: 10 mi

Pressure: 30.42 "Hg

Humidity: 70%

Dew Point: 30 °F

Location of MarlLocation

Past Weather in Marl — Graph

°F

Marl Temperature Yesterday

Maximum temperature yesterday: 43 °F (at 1:20 pm)
Minimum temperature yesterday: 25 °F (at 7:20 am)
Average temperature yesterday: 33 °F

High & Low Weather Summary for the Past Weeks

 TemperatureHumidityPressure
High57 °F (Nov 21, 2:50 pm)93% (Nov 24, 5:20 am)30.57 "Hg (Nov 24, 5:20 am)
Low21 °F (Nov 29, 6:50 am)41% (Nov 30, 12:20 pm)29.50 "Hg (Nov 21, 3:50 pm)
Average37 °F76%30.20 "Hg
* Reported Nov 21 1:20 pm — Dec 6 1:50 pm, Marl, Weather by CustomWeather, © 2016

Note: Actual official high and low records may vary slightly from our data, if they occured in-between our weather recording intervals... More about our weather records

Advertising

Marl Weather History for the Previous 24 Hours

Scroll right to see more
 ConditionsComfort  
Time TempWeatherWind HumidityBarometerVisibility
1:50 pm
Tue, Dec 6
39 °FSunny.5 mph70%30.42 "Hg10 mi
1:20 pm41 °FSunny.No wind66%30.42 "Hg10 mi
12:50 pm41 °FSunny.1 mph66%30.42 "Hg10 mi
12:20 pm37 °FSunny.No wind75%30.42 "Hg10 mi
11:50 am37 °FSunny.1 mph75%30.42 "Hg10 mi
11:20 am34 °FSunny.7 mph81%30.42 "Hg10 mi
10:50 am32 °FPassing clouds.5 mph80%30.42 "HgN/A
10:20 am30 °FPassing clouds.5 mph86%30.42 "HgN/A
9:50 am30 °FSunny.5 mph80%30.42 "Hg10 mi
9:20 am28 °FSunny.7 mph86%30.39 "Hg10 mi
8:50 am27 °FSunny.8 mph86%30.39 "Hg10 mi
8:20 am27 °FSunny.9 mph86%30.39 "Hg10 mi
7:50 am27 °FClear.9 mph86%30.39 "Hg10 mi
7:20 am27 °FClear.9 mph86%30.39 "Hg10 mi
6:50 am27 °FClear.8 mph86%30.36 "Hg10 mi
6:20 am27 °FClear.3 mph86%30.36 "Hg10 mi
5:50 am27 °FClear.7 mph86%30.36 "Hg10 mi
5:20 am27 °FClear.8 mph86%30.36 "Hg10 mi
9:50 pm
Mon, Dec 5
27 °FClear.8 mph86%30.33 "Hg10 mi
9:20 pm28 °FClear.8 mph80%30.30 "Hg10 mi
8:50 pm28 °FClear.8 mph80%30.30 "Hg10 mi
8:20 pm28 °FClear.7 mph80%30.30 "Hg10 mi
7:50 pm28 °FClear.7 mph74%30.30 "Hg10 mi
7:20 pm30 °FClear.6 mph75%30.30 "Hg10 mi
6:50 pm32 °FClear.5 mph69%30.30 "Hg10 mi
6:20 pm32 °FClear.5 mph69%30.30 "Hg10 mi
5:50 pm34 °FClear.2 mph65%30.30 "Hg10 mi
5:20 pm34 °FClear.3 mph60%30.30 "Hg10 mi
4:50 pm36 °FClear.2 mph56%30.30 "Hg10 mi
4:20 pm37 °FSunny.2 mph52%30.27 "Hg10 mi
3:50 pm39 °FSunny.2 mph52%30.27 "Hg10 mi
3:20 pm41 °FSunny.2 mph53%30.27 "Hg10 mi
Weather by CustomWeather, © 2016

See weather overviewHow to use our weather pages